Temperature
5 5 4 4 3 3 2 1 0 -1 -0 1 1 1 0 -0 -0 -1 -1 -1 -1 -2 -2 -2 -3 -3 -3 -3 -3 -3 -3 -3 -2 -2 -2 -1 -1 -1
5 4 4 3 3 2 2 1 0 -1 -2 0 0 0 -0 -1 -1 -1 -1 -2 -2 -2 -2 -3 -3 -3 -3 -3 -4 -3 -3 -3 -3 -3 -2 -2 -2 -1
4 4 3 3 2 2 1 1 0 -1 -2 -1 -1 -1 -1 -2 -2 -2 -2 -2 -3 -3 -3 -3 -3 -4 -4 -4 -4 -4 -4 -4 -3 -3 -3 -3 -2 -2
4 3 3 2 2 1 1 0 0 -1 -2 -2 -2 -2 -2 -3 -3 -3 -4 -4 -4 -4 -4 -4 -4 -4 -4 -4 -4 -4 -4 -4 -4 -4 -4 -3 -3 -3
3 3 3 2 2 1 1 0 -0 -1 -2 -3 -2 -3 -3 -3 -4 -4 -5 -5 -5 -5 -5 -5 -5 -5 -4 -4 -4 -5 -5 -5 -4 -4 -4 -4 -4 -3
3 3 2 1 1 1 0 -0 -1 -2 -2 -3 -3 -3 -4 -4 -5 -5 -5 -5 -5 -5 -5 -5 -5 -5 -5 -5 -5 -5 -5 -5 -5 -5 -4 -4 -4 -4
3 2 2 1 1 0 -1 -1 -2 -2 -3 -3 -4 -4 -4 -5 -5 -5 -6 -5 -5 -5 -5 -5 -5 -5 -5 -5 -5 -5 -5 -5 -5 -5 -5 -5 -4 -4
2 2 1 1 0 -0 -1 -2 -2 -3 -3 -4 -4 -5 -5 -5 -5 -6 -6 -6 -6 -5 -6 -6 -6 -5 -5 -5 -5 -6 -6 -5 -5 -5 -5 -5 -5 -4
1 1 0 -0 -1 -1 -2 -2 -3 -3 -4 -4 -5 -5 -5 -6 -6 -6 -6 -6 -6 -6 -6 -6 -6 -6 -5 -6 -6 -6 -6 -6 -5 -5 -5 -5 -5 -5
1 0 -1 -1 -1 -2 -2 -3 -3 -3 -4 -5 -5 -5 -6 -6 -6 -6 -6 -6 -6 -6 -6 -6 -6 -6 -6 -6 -6 -6 -6 -6 -6 -6 -5 -5 -5 -5
0 -1 -1 -2 -2 -3 -3 -4 -4 -4 -5 -5 -6 -6 -6 -6 -6 -6 -6 -6 -6 -6 -6 -7 -7 -7 -7 -6 -6 -6 -6 -6 -6 -6 -6 -6 -5 -5
-1 -1 -2 -2 -3 -4 -4 -5 -5 -5 -5 -6 -6 -6 -6 -6 -6 -6 -6 -7 -7 -7 -7 -7 -7 -8 -8 -7 -7 -7 -7 -6 -6 -6 -6 -6 -6 -6
-1 -2 -2 -3 -4 -4 -5 -5 -5 -5 -6 -6 -6 -6 -6 -6 -7 -7 -7 -7 -7 -8 -8 -8 -8 -8 -8 -8 -7 -7 -7 -7 -7 -6 -6 -6 -6 -6
-2 -3 -3 -4 -5 -5 -5 -6 -6 -6 -6 -6 -6 -6 -7 -7 -7 -7 -8 -8 -8 -8 -8 -8 -8 -9 -9 -9 -8 -7 -7 -7 -7 -7 -7 -6 -6 -6
-3 -4 -4 -5 -5 -6 -6 -6 -6 -7 -7 -7 -7 -7 -7 -8 -8 -8 -8 -8 -8 -8 -8 -8 -9 -9 -9 -9 -9 -8 -8 -7 -7 -7 -7 -7 -6 -6
-4 -4 -5 -6 -6 -6 -6 -7 -7 -7 -7 -7 -7 -8 -8 -8 -8 -9 -9 -9 -9 -8 -8 -9 -9 -9 -9 -9 -9 -8 -8 -8 -8 -7 -7 -7 -7 -6
-5 -5 -6 -6 -6 -7 -7 -7 -7 -8 -8 -8 -8 -8 -9 -9 -9 -9 -9 -9 -9 -9 -9 -9 -9 -9 -9 -9 -9 -8 -8 -8 -8 -8 -7 -7 -7 -7
-6 -6 -6 -7 -7 -7 -8 -8 -8 -8 -8 -9 -9 -9 -9 -9 -10 -10 -10 -9 -9 -9 -9 -9 -9 -9 -9 -8 -8 -8 -8 -8 -8 -8 -8 -8 -7 -7
-6 -7 -7 -7 -7 -8 -8 -8 -9 -9 -9 -9 -10 -10 -10 -10 -10 -10 -10 -10 -10 -10 -9 -10 -10 -10 -10 -10 -9 -9 -9 -9 -8 -8 -8 -8 -7 -7
-7 -7 -7 -8 -8 -8 -9 -9 -9 -10 -10 -10 -10 -10 -10 -11 -11 -10 -10 -10 -10 -10 -10 -10 -10 -10 -10 -10 -10 -9 -9 -9 -9 -8 -8 -8 -7 -7
-7 -8 -8 -8 -9 -9 -9 -10 -10 -10 -10 -11 -11 -11 -11 -11 -11 -11 -11 -10 -10 -10 -10 -10 -10 -10 -10 -10 -10 -9 -9 -9 -9 -9 -8 -8 -7 -7
-8 -9 -9 -9 -9 -10 -10 -10 -10 -11 -11 -11 -11 -11 -11 -11 -11 -11 -11 -11 -11 -10 -10 -10 -10 -10 -10 -10 -10 -9 -9 -8 -8 -8 -8 -8 -8 -8
-9 -9 -9 -10 -10 -10 -10 -11 -11 -11 -11 -11 -11 -11 -11 -12 -12 -11 -11 -11 -11 -11 -11 -10 -10 -10 -10 -10 -10 -10 -9 -9 -8 -8 -8 -8 -8 -8
Wind_Speed
4 4 4 4 4 4 4 4 4 7 7 5 4 4 11 14 16 15 14 19 23 24 25 25 25 25 25 25 25 26 26 27 27 27 28 28 28 27
4 5 5 5 5 5 5 5 6 7 9 5 5 7 11 14 19 18 17 23 23 25 26 26 26 26 26 26 26 26 27 27 27 27 28 28 28 27
5 6 7 6 5 5 5 5 6 6 12 11 6 7 8 8 12 15 17 17 18 24 26 27 27 27 26 26 26 27 27 27 27 27 27 27 27 27
6 6 7 6 7 6 5 7 7 7 10 15 9 6 8 8 8 9 12 16 16 23 26 27 27 26 27 27 27 27 27 26 26 26 27 27 27 27
6 7 7 7 8 7 7 7 7 8 8 10 11 7 6 7 9 10 10 9 16 20 23 23 24 26 27 27 27 27 26 26 25 25 26 26 26 26
6 7 8 8 9 9 8 8 8 8 7 9 11 9 8 8 7 8 10 7 9 13 18 21 23 25 25 26 27 27 26 26 25 25 25 25 24 25
7 8 9 12 14 13 10 8 7 7 8 9 11 11 10 8 8 7 11 9 8 9 9 10 10 9 14 21 24 25 26 25 25 25 24 24 24 24
8 9 9 11 16 20 21 19 15 11 9 9 10 12 12 9 9 9 10 11 9 5 6 8 7 9 8 12 21 25 25 25 24 24 23 23 23 23
8 8 10 10 14 9 14 19 17 20 19 13 12 12 12 11 11 11 10 12 12 7 8 10 7 9 8 15 22 24 24 23 22 22 22 21 21 21
9 9 10 10 10 11 9 9 9 10 13 11 11 12 13 12 12 13 14 13 11 8 7 9 7 7 10 8 19 21 20 21 21 21 20 19 19 18
9 9 10 9 16 19 12 10 10 9 15 20 22 21 24 25 19 11 9 10 11 7 4 5 5 6 6 7 11 16 19 21 21 21 20 20 19 17
7 8 13 14 18 19 11 9 11 10 10 12 14 17 15 16 20 11 7 9 10 7 3 2 4 4 5 4 4 8 12 17 20 20 20 20 17 9
6 6 7 16 19 20 18 11 16 16 11 9 9 8 8 7 7 7 6 7 8 7 4 3 3 3 4 5 5 6 6 7 9 11 16 18 16 11
7 6 8 18 20 21 17 18 24 20 9 7 8 7 6 6 5 6 6 7 7 8 7 5 4 5 6 8 7 5 6 7 7 7 6 11 12 13
8 14 17 20 20 15 18 22 19 10 7 7 7 6 5 5 5 5 6 6 6 8 10 8 7 7 7 8 7 7 7 7 6 5 6 6 6 5
9 13 19 20 16 16 16 12 7 7 8 7 6 5 4 4 5 4 5 4 5 6 7 9 7 7 7 8 8 9 7 6 6 7 6 5 5 5
9 7 6 7 6 6 7 7 6 5 6 4 4 5 4 5 5 4 4 4 5 5 5 4 5 5 7 8 7 8 8 7 6 6 5 6 5 5
13 8 8 8 8 7 7 6 5 5 5 5 4 4 4 5 5 5 4 5 5 5 5 4 3 4 4 4 7 7 5 5 5 6 5 5 5 5
10 8 8 8 7 7 6 6 5 5 4 4 5 5 5 5 5 5 5 5 5 5 5 3 2 3 5 5 5 3 3 5 5 5 5 4 5 6
7 8 8 8 7 6 6 5 5 5 4 4 5 5 5 4 5 5 5 5 5 5 4 3 3 3 4 5 4 5 7 6 5 5 5 5 5 8
7 7 7 7 7 6 6 5 5 5 5 5 5 5 4 4 5 5 6 9 7 4 5 4 4 5 3 2 4 5 5 7 7 5 5 5 5 4
8 8 7 7 6 6 5 5 5 5 5 5 5 5 4 4 5 6 5 5 5 5 5 4 3 2 2 3 5 6 6 6 8 10 9 6 3 3
7 7 7 7 6 5 5 6 6 6 6 5 5 5 4 4 4 5 5 5 5 5 4 3 2 2 3 4 5 5 7 6 5 4 5 7 8 10
Wind_Direction
221 234 240 244 241 241 239 231 250 286 291 278 285 306 321 311 306 305 302 306 308 308 307 306 305 304 303 302 302 301 300 299 297 295 294 292 290 288
220 231 242 244 243 240 238 237 231 250 274 269 274 291 300 303 305 310 308 307 307 307 305 304 304 304 303 302 302 300 299 298 296 294 293 292 290 289
233 236 244 243 245 245 243 244 245 246 270 279 270 282 291 296 303 303 302 301 301 304 303 302 302 303 303 302 302 301 300 298 297 295 293 292 291 290
240 245 252 255 253 250 249 250 253 251 265 281 285 282 281 286 286 288 298 299 298 299 299 300 301 303 304 304 303 302 301 299 297 296 295 293 291 290
243 249 255 256 260 257 255 256 258 265 262 278 288 285 283 285 289 289 286 288 292 295 297 298 300 302 303 304 305 304 303 301 299 297 296 293 291 290
251 252 255 254 256 258 260 258 260 265 269 277 284 288 285 283 284 289 293 281 284 291 292 293 295 299 300 302 304 303 302 300 298 297 296 294 291 289
254 254 256 258 263 267 268 261 255 261 268 276 282 288 289 290 286 286 293 292 279 277 279 281 288 287 292 296 299 298 297 297 298 298 297 296 293 289
256 260 263 267 272 276 278 279 275 273 274 275 281 284 287 284 286 287 289 293 293 261 269 283 285 286 286 287 293 298 301 302 302 302 300 298 296 292
255 264 273 274 279 272 278 281 281 281 281 281 281 281 285 285 284 284 279 280 283 280 287 288 278 280 283 292 299 303 303 304 306 308 305 302 300 295
255 260 266 269 270 276 269 266 261 267 274 278 272 274 276 276 270 275 279 282 280 273 268 281 282 279 289 289 298 303 308 315 315 311 310 309 306 304
257 261 268 271 281 287 285 279 278 273 282 283 283 286 287 290 291 290 289 292 293 286 256 263 282 291 285 282 293 310 318 319 318 316 316 315 311 307
261 261 273 281 288 291 286 280 282 281 278 281 282 285 287 287 291 285 279 284 289 290 267 277 287 308 300 279 293 313 314 314 317 318 319 318 316 311
265 264 266 285 289 290 290 282 283 288 283 278 278 277 276 272 271 269 263 262 276 277 273 285 279 277 274 294 297 292 295 307 314 312 316 319 320 320
269 269 274 288 290 291 292 289 291 295 290 285 282 277 274 274 275 276 272 260 256 265 271 268 271 278 286 291 293 297 309 306 304 303 308 322 327 329
276 282 288 292 295 294 292 293 295 292 285 282 280 276 268 272 281 285 279 272 269 269 271 260 259 271 273 281 287 294 306 303 300 314 319 318 315 318
282 284 289 291 290 288 290 292 283 277 280 273 273 274 283 289 288 283 282 281 283 285 271 260 253 259 272 276 281 289 292 291 308 313 311 311 310 306
286 279 276 279 274 273 274 271 266 276 287 278 278 282 286 294 291 285 278 279 277 282 289 281 264 259 261 268 276 279 285 290 296 307 313 314 310 310
293 284 282 280 279 279 278 275 270 268 268 270 275 279 283 289 289 287 282 277 278 279 278 281 293 307 305 281 252 268 281 292 307 313 312 310 309 312
287 279 279 279 278 275 273 271 272 269 267 267 270 271 272 278 287 288 285 281 279 276 274 270 274 289 301 304 300 281 301 310 315 315 310 303 299 303
268 272 275 276 275 271 269 268 267 270 269 264 265 265 264 266 278 283 282 278 279 279 281 271 259 258 267 282 288 293 298 292 297 302 307 307 296 299
270 270 271 272 271 269 266 263 261 263 265 263 261 260 258 258 267 276 280 287 287 280 278 270 261 281 271 279 286 288 293 299 299 294 300 309 312 312
270 270 270 268 267 264 261 259 260 262 261 257 256 255 252 251 262 273 275 276 271 269 272 269 265 281 260 267 283 293 300 308 310 310 303 284 283 304
271 270 269 268 263 260 257 258 260 261 252 245 246 249 246 249 255 264 270 271 270 271 272 272 270 260 263 269 281 291 296 304 308 312 307 306 296 282
Height
1512 1511 1510 1508 1507 1505 1503 1501 1498 1491 1485 1484 1483 1482 1480 1477 1475 1471 1467 1464 1461 1458 1454 1451 1448 1445 1442 1439 1436 1433 1430 1428 1426 1424 1422 1420 1419 1418
1507 1506 1505 1504 1502 1500 1499 1497 1494 1489 1482 1477 1477 1476 1473 1471 1469 1465 1462 1458 1455 1451 1448 1445 1442 1439 1435 1432 1429 1426 1423 1421 1418 1416 1414 1412 1411 1409
1502 1501 1500 1498 1497 1495 1493 1491 1488 1485 1477 1471 1471 1469 1467 1464 1461 1459 1455 1451 1448 1445 1442 1438 1435 1432 1429 1426 1423 1419 1416 1413 1411 1408 1406 1404 1402 1401
1497 1496 1494 1493 1491 1489 1487 1484 1482 1479 1474 1466 1463 1462 1460 1458 1454 1451 1448 1445 1442 1438 1435 1432 1429 1426 1423 1419 1416 1413 1409 1406 1403 1400 1398 1396 1394 1393
1492 1490 1489 1487 1484 1483 1480 1477 1475 1472 1468 1463 1457 1455 1453 1451 1447 1444 1441 1438 1435 1432 1429 1426 1423 1420 1416 1413 1409 1406 1402 1399 1396 1393 1390 1388 1386 1384
1486 1484 1482 1481 1478 1476 1473 1470 1468 1465 1462 1457 1452 1448 1446 1444 1441 1437 1433 1431 1428 1426 1422 1419 1416 1413 1410 1406 1402 1399 1395 1392 1389 1386 1383 1381 1378 1376
1479 1477 1476 1474 1471 1469 1467 1463 1461 1458 1454 1450 1445 1441 1438 1437 1434 1431 1427 1423 1420 1419 1415 1412 1409 1405 1402 1399 1395 1391 1388 1385 1382 1379 1376 1374 1371 1369
1472 1470 1469 1467 1464 1462 1460 1457 1455 1452 1448 1444 1439 1436 1432 1431 1428 1425 1421 1417 1411 1411 1408 1404 1402 1398 1395 1391 1388 1385 1382 1379 1376 1373 1369 1367 1364 1362
1465 1463 1461 1459 1457 1454 1452 1449 1447 1445 1442 1439 1433 1429 1426 1424 1422 1418 1415 1411 1406 1404 1402 1396 1394 1391 1388 1385 1382 1379 1376 1373 1370 1366 1363 1361 1358 1356
1458 1456 1454 1451 1449 1447 1443 1440 1438 1436 1434 1431 1427 1423 1420 1418 1415 1412 1408 1403 1399 1398 1396 1390 1387 1384 1381 1378 1376 1373 1370 1367 1364 1361 1358 1355 1352 1350
1451 1449 1447 1444 1442 1440 1436 1432 1429 1426 1425 1423 1420 1417 1414 1412 1409 1406 1401 1398 1393 1390 1389 1386 1381 1378 1374 1372 1370 1368 1365 1362 1359 1356 1353 1350 1347 1345
1443 1441 1440 1437 1435 1432 1429 1425 1421 1418 1416 1413 1411 1409 1406 1404 1402 1400 1396 1392 1388 1384 1383 1381 1377 1374 1369 1366 1365 1363 1360 1357 1354 1351 1348 1345 1343 1340
1435 1433 1431 1429 1427 1424 1422 1418 1415 1412 1408 1405 1402 1400 1398 1396 1394 1392 1390 1387 1383 1380 1378 1376 1373 1370 1368 1362 1359 1358 1355 1352 1349 1347 1344 1341 1339 1337
1428 1425 1423 1421 1419 1416 1414 1411 1408 1405 1401 1398 1395 1392 1390 1388 1386 1384 1382 1380 1378 1375 1373 1372 1369 1366 1363 1359 1356 1353 1351 1349 1346 1343 1341 1339 1336 1335
1421 1418 1415 1413 1410 1407 1405 1403 1400 1397 1394 1391 1388 1385 1384 1382 1380 1378 1376 1374 1371 1370 1368 1366 1364 1362 1360 1357 1353 1350 1347 1345 1343 1341 1339 1336 1334 1332
1413 1410 1408 1405 1402 1400 1397 1395 1392 1390 1387 1384 1381 1379 1377 1376 1374 1372 1370 1368 1366 1364 1363 1362 1360 1358 1355 1353 1351 1347 1346 1343 1341 1339 1336 1334 1333 1331
1405 1402 1399 1396 1394 1392 1389 1387 1385 1383 1381 1378 1376 1374 1372 1370 1368 1367 1365 1364 1362 1360 1358 1357 1356 1354 1352 1350 1347 1345 1343 1341 1339 1337 1334 1332 1331 1329
1399 1394 1392 1389 1387 1385 1382 1380 1378 1377 1375 1373 1371 1369 1367 1365 1364 1362 1361 1360 1358 1356 1355 1354 1352 1350 1348 1346 1345 1342 1341 1339 1337 1335 1333 1331 1328 1327
1391 1387 1385 1383 1380 1378 1376 1374 1372 1370 1369 1367 1365 1364 1362 1361 1359 1358 1357 1356 1354 1353 1352 1351 1350 1348 1346 1343 1342 1342 1339 1337 1335 1333 1331 1329 1327 1325
1384 1381 1378 1376 1374 1372 1370 1368 1366 1364 1363 1361 1360 1358 1357 1356 1355 1354 1353 1352 1351 1350 1349 1348 1347 1346 1344 1343 1340 1338 1338 1335 1333 1331 1329 1327 1325 1323
1376 1374 1371 1369 1367 1365 1363 1361 1360 1358 1357 1356 1354 1353 1353 1352 1351 1350 1349 1348 1348 1346 1345 1345 1344 1343 1341 1340 1338 1336 1335 1334 1332 1330 1328 1325 1323 1321
1369 1366 1364 1362 1360 1358 1356 1355 1353 1352 1351 1350 1349 1348 1348 1347 1347 1346 1345 1345 1344 1343 1342 1341 1341 1340 1339 1337 1335 1334 1332 1331 1330 1329 1327 1325 1324 1321
1361 1359 1357 1355 1353 1351 1350 1348 1347 1346 1345 1344 1344 1343 1343 1342 1342 1342 1341 1341 1340 1340 1339 1338 1338 1337 1336 1335 1334 1332 1331 1329 1328 1327 1326 1324 1322 1321